Station Historical Data
Daily Summary for May 20, 2017 Units:  English    Metric   Both
« Previous Day
Next Day »
Daily Weekly Monthly Yearly Custom
  High: Low: Average:
Temperature: 67.5 °F 49.1 °F 57.2 °F
Dew Point: 46.8 °F 34.4 °F 41.1 °F
Humidity: 78% 42% 56%
Wind Speed: 15.0mph 0.0mph 6.5mph
Wind Gust: 22.0mph - -
Wind- - ENE
Pressure: 30.32 in 30.17 in -
Precipitation: 0.00 in    
Historical Graphs
 
 
Tabular Data for May 20, 2017
Time Temperature Dew Point Pressure Wind Wind Speed Wind Gust Humidity Rainfall Rate (Hourly)
00:00 54.3 °F 45.1 °F 30.20 in NE 2.0 mph 5.0 mph 71% 0.00 in
00:05 54.1 °F 44.9 °F 30.20 in NE 1.0 mph 4.0 mph 71% 0.00 in
00:10 54.1 °F 44.9 °F 30.19 in NE 1.0 mph 4.0 mph 71% 0.00 in
00:15 54.2 °F 44.6 °F 30.19 in NE 2.0 mph 5.0 mph 70% 0.00 in
00:20 54.1 °F 44.5 °F 30.19 in ENE 2.0 mph 7.0 mph 70% 0.00 in
00:25 54.1 °F 44.5 °F 30.19 in ENE 3.0 mph 7.0 mph 70% 0.00 in
00:30 54.1 °F 44.9 °F 30.19 in NE 3.0 mph 5.0 mph 71% 0.00 in
00:35 53.8 °F 44.6 °F 30.18 in NE 2.0 mph 3.0 mph 71% 0.00 in
00:40 53.9 °F 44.7 °F 30.18 in NE 2.0 mph 7.0 mph 71% 0.00 in
00:45 53.9 °F 44.7 °F 30.18 in Calm   4.0 mph 71% 0.00 in
00:50 53.7 °F 44.9 °F 30.18 in NE 2.0 mph 6.0 mph 72% 0.00 in
00:55 53.6 °F 44.8 °F 30.18 in Calm   5.0 mph 72% 0.00 in
01:00 53.2 °F 44.8 °F 30.19 in ENE 2.0 mph 5.0 mph 73% 0.00 in
01:05 53.1 °F 44.7 °F 30.18 in ENE 1.0 mph 4.0 mph 73% 0.00 in
01:10 53.1 °F 45.0 °F 30.19 in NE 2.0 mph 7.0 mph 74% 0.00 in
01:15 53.1 °F 45.0 °F 30.18 in ENE 2.0 mph 7.0 mph 74% 0.00 in
01:20 53.2 °F 45.1 °F 30.18 in ENE 4.0 mph 10.0 mph 74% 0.00 in
01:25 53.2 °F 45.5 °F 30.19 in NE 4.0 mph 10.0 mph 75% 0.00 in
01:30 53.1 °F 45.4 °F 30.19 in NE 4.0 mph 5.0 mph 75% 0.00 in
01:35 53.1 °F 45.4 °F 30.18 in NE 3.0 mph 7.0 mph 75% 0.00 in
01:40 53.0 °F 45.3 °F 30.18 in NE 4.0 mph 9.0 mph 75% 0.00 in
01:45 53.0 °F 45.6 °F 30.18 in ENE 3.0 mph 8.0 mph 76% 0.00 in
01:50 52.9 °F 45.5 °F 30.19 in NE 3.0 mph 11.0 mph 76% 0.00 in
01:55 52.9 °F 45.5 °F 30.19 in NNW 4.0 mph 8.0 mph 76% 0.00 in
02:00 52.7 °F 45.3 °F 30.18 in NE 2.0 mph 8.0 mph 76% 0.00 in
02:05 52.6 °F 45.2 °F 30.18 in NE 4.0 mph 10.0 mph 76% 0.00 in
02:10 52.5 °F 45.2 °F 30.19 in NE 5.0 mph 11.0 mph 76% 0.00 in
02:15 52.4 °F 45.4 °F 30.19 in NE 2.0 mph 12.0 mph 77% 0.00 in
02:20 52.4 °F 45.7 °F 30.18 in ENE 3.0 mph 10.0 mph 78% 0.00 in
02:25 52.3 °F 45.6 °F 30.18 in NE 6.0 mph 11.0 mph 78% 0.00 in
02:30 52.3 °F 45.6 °F 30.19 in NE 6.0 mph 11.0 mph 78% 0.00 in
02:35 52.3 °F 45.6 °F 30.18 in NE 6.0 mph 11.0 mph 78% 0.00 in
02:40 52.3 °F 45.3 °F 30.17 in ENE 5.0 mph 10.0 mph 77% 0.00 in
02:45 52.2 °F 45.2 °F 30.17 in ENE 6.0 mph 13.0 mph 77% 0.00 in
02:55 52.1 °F 44.8 °F 30.19 in NE 9.0 mph 9.0 mph 76% 0.00 in
03:00 52.1 °F 44.8 °F 30.20 in NE 4.0 mph 10.0 mph 76% 0.00 in
03:05 52.0 °F 44.7 °F 30.20 in NE 5.0 mph 9.0 mph 76% 0.00 in
03:10 51.9 °F 44.6 °F 30.20 in NE 3.0 mph 12.0 mph 76% 0.00 in
03:15 51.9 °F 44.9 °F 30.20 in NE 2.0 mph 9.0 mph 77% 0.00 in
03:20 51.8 °F 44.8 °F 30.20 in NNE 5.0 mph 13.0 mph 77% 0.00 in
03:25 51.7 °F 44.7 °F 30.20 in NE 4.0 mph 10.0 mph 77% 0.00 in
03:30 51.6 °F 44.6 °F 30.20 in NE 6.0 mph 14.0 mph 77% 0.00 in
03:35 51.5 °F 44.5 °F 30.21 in NE 6.0 mph 14.0 mph 77% 0.00 in
03:40 51.5 °F 44.2 °F 30.21 in NE 6.0 mph 13.0 mph 76% 0.00 in
03:45 51.3 °F 43.6 °F 30.22 in NE 6.0 mph 14.0 mph 75% 0.00 in
03:50 51.3 °F 42.6 °F 30.22 in NE 7.0 mph 14.0 mph 72% 0.00 in
03:55 51.2 °F 42.1 °F 30.22 in NE 6.0 mph 14.0 mph 71% 0.00 in
04:00 51.3 °F 41.1 °F 30.23 in NE 9.0 mph 14.0 mph 68% 0.00 in
04:05 51.3 °F 39.5 °F 30.22 in NE 10.0 mph 16.0 mph 64% 0.00 in
04:10 51.4 °F 38.4 °F 30.23 in NE 8.0 mph 15.0 mph 61% 0.00 in
04:15 51.3 °F 37.9 °F 30.22 in NE 5.0 mph 14.0 mph 60% 0.00 in
04:20 51.3 °F 37.4 °F 30.23 in NE 9.0 mph 14.0 mph 59% 0.00 in
04:25 51.3 °F 37.0 °F 30.23 in NE 8.0 mph 15.0 mph 58% 0.00 in
04:30 51.2 °F 36.9 °F 30.23 in NE 8.0 mph 16.0 mph 58% 0.00 in
04:35 51.2 °F 36.5 °F 30.23 in NE 8.0 mph 16.0 mph 57% 0.00 in
04:40 51.1 °F 36.4 °F 30.23 in NE 9.0 mph 17.0 mph 57% 0.00 in
04:45 51.1 °F 36.4 °F 30.23 in NE 9.0 mph 17.0 mph 57% 0.00 in
04:50 51.0 °F 36.3 °F 30.24 in NE 6.0 mph 16.0 mph 57% 0.00 in
05:00 50.8 °F 35.7 °F 30.25 in NE 8.0 mph 16.0 mph 56% 0.00 in
05:05 50.7 °F 35.6 °F 30.24 in NE 9.0 mph 16.0 mph 56% 0.00 in
05:10 50.5 °F 35.4 °F 30.25 in NE 9.0 mph 14.0 mph 56% 0.00 in
05:15 50.4 °F 35.3 °F 30.25 in ENE 10.0 mph 13.0 mph 56% 0.00 in
05:20 50.3 °F 35.2 °F 30.26 in NE 7.0 mph 17.0 mph 56% 0.00 in
05:25 50.1 °F 35.0 °F 30.25 in NE 8.0 mph 17.0 mph 56% 0.00 in
05:30 50.0 °F 34.9 °F 30.26 in NE 9.0 mph 16.0 mph 56% 0.00 in
05:35 49.9 °F 34.8 °F 30.26 in NE 9.0 mph 14.0 mph 56% 0.00 in
05:40 49.9 °F 34.8 °F 30.26 in NNE 8.0 mph 12.0 mph 56% 0.00 in
05:45 49.8 °F 34.7 °F 30.26 in NE 12.0 mph 15.0 mph 56% 0.00 in
05:50 49.7 °F 34.6 °F 30.26 in ENE 13.0 mph 13.0 mph 56% 0.00 in
05:55 49.6 °F 34.5 °F 30.26 in NE 8.0 mph 16.0 mph 56% 0.00 in
06:00 49.5 °F 34.4 °F 30.26 in NE 8.0 mph 16.0 mph 56% 0.00 in
06:05 49.5 °F 34.4 °F 30.26 in NE 8.0 mph 15.0 mph 56% 0.00 in
06:10 49.3 °F 34.7 °F 30.26 in NE 7.0 mph 14.0 mph 57% 0.00 in
06:15 49.3 °F 35.1 °F 30.27 in NE 7.0 mph 14.0 mph 58% 0.00 in
06:20 49.3 °F 35.1 °F 30.27 in NE 7.0 mph 18.0 mph 58% 0.00 in
06:25 49.3 °F 35.1 °F 30.27 in ENE 4.0 mph 16.0 mph 58% 0.00 in
06:30 49.2 °F 35.0 °F 30.28 in NE 13.0 mph 16.0 mph 58% 0.00 in
06:35 49.3 °F 35.1 °F 30.28 in East 13.0 mph 15.0 mph 58% 0.00 in
06:40 49.3 °F 35.1 °F 30.28 in ESE 7.0 mph 18.0 mph 58% 0.00 in
06:45 49.3 °F 35.1 °F 30.28 in NNE 9.0 mph 22.0 mph 58% 0.00 in
06:50 49.2 °F 35.5 °F 30.28 in East 11.0 mph 17.0 mph 59% 0.00 in
06:55 49.2 °F 35.5 °F 30.28 in NE 8.0 mph 17.0 mph 59% 0.00 in
07:00 49.1 °F 35.4 °F 30.28 in NE 8.0 mph 16.0 mph 59% 0.00 in
07:05 49.1 °F 35.4 °F 30.29 in NE 8.0 mph 17.0 mph 59% 0.00 in
07:10 49.1 °F 35.8 °F 30.29 in NE 9.0 mph 18.0 mph 60% 0.00 in
07:15 49.1 °F 35.8 °F 30.30 in ENE 5.0 mph 13.0 mph 60% 0.00 in
07:20 49.2 °F 35.9 °F 30.30 in ENE 11.0 mph 16.0 mph 60% 0.00 in
07:25 49.2 °F 35.9 °F 30.30 in NE 9.0 mph 18.0 mph 60% 0.00 in
07:30 49.2 °F 35.9 °F 30.29 in ENE 10.0 mph 20.0 mph 60% 0.00 in
07:35 49.4 °F 36.5 °F 30.30 in ENE 7.0 mph 20.0 mph 61% 0.00 in
07:40 49.4 °F 36.1 °F 30.30 in ENE 14.0 mph 15.0 mph 60% 0.00 in
07:45 49.5 °F 36.6 °F 30.31 in NE 4.0 mph 16.0 mph 61% 0.00 in
07:50 49.6 °F 36.7 °F 30.31 in ESE 8.0 mph 15.0 mph 61% 0.00 in
07:55 49.6 °F 36.3 °F 30.31 in NE 8.0 mph 17.0 mph 60% 0.00 in
08:00 49.8 °F 36.5 °F 30.31 in ENE 9.0 mph 18.0 mph 60% 0.00 in
08:05 50.3 °F 37.4 °F 30.31 in ENE 9.0 mph 18.0 mph 61% 0.00 in
08:10 50.9 °F 37.5 °F 30.31 in ENE 9.0 mph 17.0 mph 60% 0.00 in
08:15 51.2 °F 37.8 °F 30.31 in ENE 4.0 mph 16.0 mph 60% 0.00 in
08:20 51.5 °F 37.2 °F 30.31 in SE 13.0 mph 17.0 mph 58% 0.00 in
08:25 51.4 °F 37.1 °F 30.32 in NE 9.0 mph 21.0 mph 58% 0.00 in
08:30 52.0 °F 38.1 °F 30.32 in ENE 8.0 mph 21.0 mph 59% 0.00 in
08:35 51.5 °F 37.2 °F 30.32 in ENE 8.0 mph 17.0 mph 58% 0.00 in
08:40 52.0 °F 37.7 °F 30.32 in NE 9.0 mph 17.0 mph 58% 0.00 in
08:45 53.0 °F 38.2 °F 30.32 in ENE 5.0 mph 14.0 mph 57% 0.00 in
08:50 53.2 °F 38.4 °F 30.32 in ENE 9.0 mph 11.0 mph 57% 0.00 in
08:55 53.1 °F 38.3 °F 30.32 in NE 7.0 mph 13.0 mph 57% 0.00 in
09:00 53.4 °F 38.1 °F 30.31 in NE 6.0 mph 15.0 mph 56% 0.00 in
09:05 53.6 °F 38.7 °F 30.31 in NE 13.0 mph 16.0 mph 57% 0.00 in
09:10 54.3 °F 38.5 °F 30.31 in ENE 4.0 mph 14.0 mph 55% 0.00 in
09:15 53.9 °F 37.6 °F 30.31 in NE 3.0 mph 14.0 mph 54% 0.00 in
09:20 54.4 °F 38.6 °F 30.31 in ENE 4.0 mph 16.0 mph 55% 0.00 in
09:25 54.2 °F 37.9 °F 30.32 in NE 8.0 mph 21.0 mph 54% 0.00 in
09:30 55.3 °F 39.9 °F 30.32 in NE 7.0 mph 21.0 mph 56% 0.00 in
09:35 56.0 °F 38.6 °F 30.32 in ENE 5.0 mph 11.0 mph 52% 0.00 in
09:40 55.4 °F 37.6 °F 30.32 in ENE 6.0 mph 14.0 mph 51% 0.00 in
09:45 56.0 °F 39.6 °F 30.31 in ENE 6.0 mph 14.0 mph 54% 0.00 in
09:50 56.4 °F 39.5 °F 30.31 in East 5.0 mph 10.0 mph 53% 0.00 in
09:55 56.2 °F 39.3 °F 30.31 in ENE 5.0 mph 16.0 mph 53% 0.00 in
10:00 56.4 °F 39.0 °F 30.31 in East 9.0 mph 14.0 mph 52% 0.00 in
10:05 56.6 °F 39.7 °F 30.31 in ENE 10.0 mph 13.0 mph 53% 0.00 in
10:10 56.8 °F 38.9 °F 30.31 in NNE 7.0 mph 11.0 mph 51% 0.00 in
10:15 57.4 °F 39.4 °F 30.31 in NE 5.0 mph 12.0 mph 51% 0.00 in
10:20 57.0 °F 38.5 °F 30.31 in East 3.0 mph 13.0 mph 50% 0.00 in
10:25 57.7 °F 39.7 °F 30.31 in NE 10.0 mph 11.0 mph 51% 0.00 in
10:30 58.1 °F 40.1 °F 30.30 in ENE 6.0 mph 11.0 mph 51% 0.00 in
10:35 58.4 °F 40.3 °F 30.30 in ENE 6.0 mph 15.0 mph 51% 0.00 in
10:40 58.5 °F 39.9 °F 30.30 in ENE 6.0 mph 15.0 mph 50% 0.00 in
10:45 58.6 °F 39.5 °F 30.30 in ENE 7.0 mph 15.0 mph 49% 0.00 in
10:50 58.5 °F 39.4 °F 30.31 in ENE 8.0 mph 16.0 mph 49% 0.00 in
10:55 59.0 °F 40.4 °F 30.30 in ENE 7.0 mph 16.0 mph 50% 0.00 in
11:00 58.3 °F 40.2 °F 30.31 in NE 8.0 mph 17.0 mph 51% 0.00 in
11:05 59.6 °F 40.4 °F 30.31 in SE 8.0 mph 11.0 mph 49% 0.00 in
11:10 59.2 °F 40.0 °F 30.31 in NE 12.0 mph 15.0 mph 49% 0.00 in
11:15 59.0 °F 39.9 °F 30.31 in ENE 9.0 mph 15.0 mph 49% 0.00 in
11:20 60.2 °F 41.5 °F 30.31 in NE 14.0 mph 21.0 mph 50% 0.00 in
11:25 60.3 °F 41.6 °F 30.30 in NE 5.0 mph 16.0 mph 50% 0.00 in
11:30 60.2 °F 40.4 °F 30.30 in NE 4.0 mph 16.0 mph 48% 0.00 in
11:35 60.6 °F 41.3 °F 30.30 in ENE 7.0 mph 16.0 mph 49% 0.00 in
11:40 60.9 °F 42.6 °F 30.30 in ENE 8.0 mph 15.0 mph 51% 0.00 in
11:45 61.9 °F 41.4 °F 30.30 in ENE 7.0 mph 15.0 mph 47% 0.00 in
11:50 61.0 °F 40.6 °F 30.30 in ENE 7.0 mph 16.0 mph 47% 0.00 in
11:55 60.7 °F 41.4 °F 30.31 in ENE 8.0 mph 16.0 mph 49% 0.00 in
12:00 61.5 °F 42.7 °F 30.31 in NNE 4.0 mph 14.0 mph 50% 0.00 in
12:05 62.3 °F 42.3 °F 30.30 in East 8.0 mph 13.0 mph 48% 0.00 in
12:10 61.4 °F 40.4 °F 30.30 in ESE 3.0 mph 17.0 mph 46% 0.00 in
12:15 61.9 °F 41.4 °F 30.31 in SSE 5.0 mph 13.0 mph 47% 0.00 in
12:20 62.3 °F 41.2 °F 30.30 in East 9.0 mph 17.0 mph 46% 0.00 in
12:25 62.3 °F 40.7 °F 30.30 in NE 3.0 mph 11.0 mph 45% 0.00 in
12:30 62.6 °F 43.2 °F 30.30 in ENE 6.0 mph 11.0 mph 49% 0.00 in
12:35 63.2 °F 40.9 °F 30.30 in ENE 5.0 mph 11.0 mph 44% 0.00 in
12:40 63.0 °F 41.9 °F 30.30 in ENE 6.0 mph 11.0 mph 46% 0.00 in
12:45 63.5 °F 42.3 °F 30.30 in ENE 5.0 mph 11.0 mph 46% 0.00 in
12:50 63.1 °F 41.4 °F 30.30 in ENE 6.0 mph 12.0 mph 45% 0.00 in
12:55 63.5 °F 42.3 °F 30.30 in East 5.0 mph 15.0 mph 46% 0.00 in
13:00 63.2 °F 42.1 °F 30.30 in ENE 6.0 mph 15.0 mph 46% 0.00 in
13:05 63.9 °F 41.5 °F 30.30 in ENE 7.0 mph 13.0 mph 44% 0.00 in
13:10 63.5 °F 41.8 °F 30.30 in NE 5.0 mph 13.0 mph 45% 0.00 in
13:15 64.3 °F 41.3 °F 30.29 in East 2.0 mph 10.0 mph 43% 0.00 in
13:20 64.8 °F 42.9 °F 30.29 in NE 6.0 mph 12.0 mph 45% 0.00 in
13:25 64.5 °F 40.9 °F 30.29 in NE 2.0 mph 14.0 mph 42% 0.00 in
13:30 64.5 °F 42.1 °F 30.29 in ENE 7.0 mph 14.0 mph 44% 0.00 in
13:35 64.5 °F 43.3 °F 30.29 in ENE 6.0 mph 14.0 mph 46% 0.00 in
13:40 65.3 °F 43.4 °F 30.28 in ENE 5.0 mph 14.0 mph 45% 0.00 in
13:45 65.7 °F 43.8 °F 30.29 in ENE 5.0 mph 13.0 mph 45% 0.00 in
13:50 65.6 °F 43.7 °F 30.28 in NE 10.0 mph 13.0 mph 45% 0.00 in
13:55 65.8 °F 42.1 °F 30.28 in ENE 3.0 mph 12.0 mph 42% 0.00 in
14:00 65.7 °F 43.2 °F 30.28 in ENE 1.0 mph 9.0 mph 44% 0.00 in
14:05 66.4 °F 42.6 °F 30.28 in ENE 5.0 mph 16.0 mph 42% 0.00 in
14:10 65.8 °F 42.1 °F 30.27 in ENE 2.0 mph 13.0 mph 42% 0.00 in
14:15 65.7 °F 42.0 °F 30.27 in ENE 7.0 mph 18.0 mph 42% 0.00 in
14:20 66.1 °F 43.5 °F 30.27 in ENE 5.0 mph 12.0 mph 44% 0.00 in
14:25 66.8 °F 43.6 °F 30.27 in ENE 4.0 mph 12.0 mph 43% 0.00 in
14:30 67.5 °F 43.6 °F 30.27 in ENE 5.0 mph 12.0 mph 42% 0.00 in
14:35 66.8 °F 44.8 °F 30.27 in NE 6.0 mph 15.0 mph 45% 0.00 in
14:40 66.1 °F 44.7 °F 30.27 in NE 10.0 mph 15.0 mph 46% 0.00 in
14:45 66.0 °F 45.7 °F 30.27 in NE 7.0 mph 14.0 mph 48% 0.00 in
14:50 65.9 °F 45.6 °F 30.27 in NE 11.0 mph 17.0 mph 48% 0.00 in
14:55 65.8 °F 45.6 °F 30.27 in NE 7.0 mph 17.0 mph 48% 0.00 in
15:00 65.6 °F 45.4 °F 30.27 in NE 7.0 mph 19.0 mph 48% 0.00 in
15:05 65.4 °F 45.7 °F 30.28 in NE 9.0 mph 19.0 mph 49% 0.00 in
15:10 65.2 °F 45.0 °F 30.27 in NE 10.0 mph 18.0 mph 48% 0.00 in
15:15 65.8 °F 45.6 °F 30.27 in NE 9.0 mph 18.0 mph 48% 0.00 in
15:20 66.1 °F 45.3 °F 30.27 in NE 9.0 mph 17.0 mph 47% 0.00 in
15:25 65.5 °F 44.7 °F 30.27 in NNE 5.0 mph 15.0 mph 47% 0.00 in
15:30 65.4 °F 46.8 °F 30.27 in NNE 4.0 mph 16.0 mph 51% 0.00 in
15:35 65.3 °F 44.5 °F 30.27 in NE 8.0 mph 17.0 mph 47% 0.00 in
15:40 65.3 °F 45.6 °F 30.27 in NE 9.0 mph 17.0 mph 49% 0.00 in
15:45 64.8 °F 45.2 °F 30.27 in NNE 3.0 mph 18.0 mph 49% 0.00 in
15:50 65.0 °F 44.8 °F 30.27 in NE 7.0 mph 17.0 mph 48% 0.00 in
15:55 64.9 °F 46.3 °F 30.26 in NE 9.0 mph 20.0 mph 51% 0.00 in
16:00 65.1 °F 44.4 °F 30.26 in NE 9.0 mph 20.0 mph 47% 0.00 in
16:05 65.0 °F 45.9 °F 30.26 in NE 8.0 mph 15.0 mph 50% 0.00 in
16:10 65.5 °F 44.7 °F 30.25 in NE 7.0 mph 14.0 mph 47% 0.00 in
16:15 65.5 °F 44.7 °F 30.25 in NE 7.0 mph 19.0 mph 47% 0.00 in
16:20 65.0 °F 44.3 °F 30.26 in NE 8.0 mph 17.0 mph 47% 0.00 in
16:25 64.4 °F 44.3 °F 30.26 in ENE 12.0 mph 16.0 mph 48% 0.00 in
16:30 63.8 °F 44.3 °F 30.25 in East 13.0 mph 16.0 mph 49% 0.00 in
16:35 63.7 °F 43.1 °F 30.26 in ENE 5.0 mph 17.0 mph 47% 0.00 in
16:40 63.2 °F 43.2 °F 30.26 in NNE 5.0 mph 16.0 mph 48% 0.00 in
16:45 63.8 °F 44.8 °F 30.25 in ENE 8.0 mph 14.0 mph 50% 0.00 in
16:50 64.1 °F 43.4 °F 30.25 in NE 5.0 mph 16.0 mph 47% 0.00 in
16:55 64.5 °F 44.4 °F 30.25 in NE 6.0 mph 14.0 mph 48% 0.00 in
17:00 65.2 °F 45.5 °F 30.25 in NE 7.0 mph 14.0 mph 49% 0.00 in
17:05 64.4 °F 43.2 °F 30.24 in NE 8.0 mph 18.0 mph 46% 0.00 in
17:10 63.8 °F 43.2 °F 30.25 in NE 9.0 mph 18.0 mph 47% 0.00 in
17:15 63.7 °F 43.1 °F 30.24 in NE 8.0 mph 17.0 mph 47% 0.00 in
17:20 63.3 °F 43.8 °F 30.24 in NE 9.0 mph 16.0 mph 49% 0.00 in
17:25 63.6 °F 43.5 °F 30.24 in NE 4.0 mph 18.0 mph 48% 0.00 in
17:30 63.9 °F 43.8 °F 30.24 in ENE 8.0 mph 18.0 mph 48% 0.00 in
17:35 63.8 °F 43.7 °F 30.24 in ENE 8.0 mph 21.0 mph 48% 0.00 in
17:40 63.2 °F 42.6 °F 30.24 in NE 13.0 mph 20.0 mph 47% 0.00 in
17:45 63.1 °F 44.2 °F 30.24 in NE 7.0 mph 20.0 mph 50% 0.00 in
17:50 62.8 °F 43.3 °F 30.24 in NE 15.0 mph 17.0 mph 49% 0.00 in
17:55 62.6 °F 42.6 °F 30.24 in NE 7.0 mph 17.0 mph 48% 0.00 in
18:00 62.5 °F 42.5 °F 30.23 in NE 10.0 mph 18.0 mph 48% 0.00 in
18:05 62.4 °F 42.4 °F 30.23 in NE 11.0 mph 18.0 mph 48% 0.00 in
18:10 62.5 °F 43.1 °F 30.23 in ENE 11.0 mph 18.0 mph 49% 0.00 in
18:15 62.5 °F 43.1 °F 30.24 in ENE 11.0 mph 14.0 mph 49% 0.00 in
18:20 62.1 °F 42.7 °F 30.23 in NNE 8.0 mph 16.0 mph 49% 0.00 in
18:25 62.1 °F 42.7 °F 30.23 in NE 9.0 mph 16.0 mph 49% 0.00 in
18:30 62.2 °F 42.8 °F 30.23 in NE 12.0 mph 18.0 mph 49% 0.00 in
18:35 62.0 °F 42.6 °F 30.23 in NE 8.0 mph 18.0 mph 49% 0.00 in
18:40 61.8 °F 42.4 °F 30.23 in NE 9.0 mph 18.0 mph 49% 0.00 in
18:45 61.6 °F 43.3 °F 30.23 in East 9.0 mph 18.0 mph 51% 0.00 in
18:50 61.8 °F 43.0 °F 30.23 in ENE 11.0 mph 19.0 mph 50% 0.00 in
18:55 61.3 °F 42.5 °F 30.23 in NE 8.0 mph 17.0 mph 50% 0.00 in
19:00 61.1 °F 43.3 °F 30.23 in ENE 8.0 mph 16.0 mph 52% 0.00 in
19:05 61.0 °F 42.7 °F 30.23 in NE 12.0 mph 18.0 mph 51% 0.00 in
19:10 60.9 °F 42.6 °F 30.23 in NE 7.0 mph 19.0 mph 51% 0.00 in
19:15 60.5 °F 42.3 °F 30.23 in ENE 5.0 mph 13.0 mph 51% 0.00 in
19:20 60.1 °F 42.4 °F 30.23 in ENE 4.0 mph 16.0 mph 52% 0.00 in
19:25 59.8 °F 42.6 °F 30.23 in ENE 8.0 mph 16.0 mph 53% 0.00 in
19:30 59.6 °F 42.4 °F 30.23 in ENE 6.0 mph 13.0 mph 53% 0.00 in
19:35 59.5 °F 42.3 °F 30.23 in ENE 6.0 mph 13.0 mph 53% 0.00 in
19:40 59.4 °F 42.3 °F 30.23 in ENE 6.0 mph 13.0 mph 53% 0.00 in
19:45 59.3 °F 42.2 °F 30.23 in ENE 5.0 mph 11.0 mph 53% 0.00 in
19:50 59.2 °F 42.1 °F 30.23 in ENE 5.0 mph 13.0 mph 53% 0.00 in
19:55 59.2 °F 42.1 °F 30.23 in NE 4.0 mph 11.0 mph 53% 0.00 in
20:00 59.1 °F 42.0 °F 30.23 in ENE 5.0 mph 11.0 mph 53% 0.00 in
20:05 58.8 °F 41.7 °F 30.22 in ENE 3.0 mph 14.0 mph 53% 0.00 in
20:10 58.6 °F 42.0 °F 30.23 in NE 5.0 mph 13.0 mph 54% 0.00 in
20:15 58.5 °F 41.9 °F 30.23 in ENE 3.0 mph 15.0 mph 54% 0.00 in
20:20 58.4 °F 41.3 °F 30.24 in ENE 7.0 mph 13.0 mph 53% 0.00 in
20:25 58.1 °F 41.0 °F 30.24 in East 6.0 mph 14.0 mph 53% 0.00 in
20:30 57.9 °F 40.9 °F 30.23 in ENE 6.0 mph 14.0 mph 53% 0.00 in
20:35 57.7 °F 40.7 °F 30.23 in ENE 5.0 mph 12.0 mph 53% 0.00 in
20:40 57.4 °F 39.9 °F 30.23 in ENE 5.0 mph 11.0 mph 52% 0.00 in
20:45 57.3 °F 39.8 °F 30.23 in NE 8.0 mph 14.0 mph 52% 0.00 in
20:50 57.1 °F 40.1 °F 30.22 in NE 5.0 mph 13.0 mph 53% 0.00 in
20:55 57.0 °F 40.0 °F 30.22 in ENE 7.0 mph 13.0 mph 53% 0.00 in
21:00 56.9 °F 39.9 °F 30.22 in ENE 6.0 mph 14.0 mph 53% 0.00 in
21:05 56.7 °F 39.7 °F 30.22 in ENE 6.0 mph 15.0 mph 53% 0.00 in
21:10 56.5 °F 39.6 °F 30.21 in ENE 9.0 mph 11.0 mph 53% 0.00 in
21:15 56.4 °F 40.0 °F 30.21 in East 6.0 mph 14.0 mph 54% 0.00 in
21:20 56.3 °F 39.9 °F 30.20 in ENE 4.0 mph 15.0 mph 54% 0.00 in
21:25 56.2 °F 39.8 °F 30.20 in ENE 6.0 mph 15.0 mph 54% 0.00 in
21:30 56.1 °F 39.7 °F 30.20 in ENE 6.0 mph 13.0 mph 54% 0.00 in
21:35 56.1 °F 39.7 °F 30.19 in ENE 6.0 mph 14.0 mph 54% 0.00 in
21:40 56.1 °F 39.7 °F 30.19 in NE 7.0 mph 12.0 mph 54% 0.00 in
21:45 56.1 °F 39.7 °F 30.19 in ENE 3.0 mph 12.0 mph 54% 0.00 in
21:50 56.1 °F 39.7 °F 30.20 in NE 5.0 mph 17.0 mph 54% 0.00 in
21:55 56.1 °F 39.7 °F 30.20 in ENE 7.0 mph 17.0 mph 54% 0.00 in
22:00 56.1 °F 40.1 °F 30.21 in ENE 6.0 mph 13.0 mph 55% 0.00 in
22:05 56.1 °F 40.1 °F 30.21 in ENE 5.0 mph 9.0 mph 55% 0.00 in
22:10 56.2 °F 40.2 °F 30.20 in ENE 5.0 mph 15.0 mph 55% 0.00 in
22:15 56.3 °F 39.9 °F 30.21 in ENE 5.0 mph 13.0 mph 54% 0.00 in
22:20 56.4 °F 40.0 °F 30.21 in East 7.0 mph 10.0 mph 54% 0.00 in
22:25 56.4 °F 40.4 °F 30.20 in ENE 6.0 mph 14.0 mph 55% 0.00 in
22:30 56.5 °F 40.5 °F 30.20 in ESE 3.0 mph 16.0 mph 55% 0.00 in
22:35 56.5 °F 40.0 °F 30.20 in ENE 4.0 mph 11.0 mph 54% 0.00 in
22:40 56.6 °F 40.1 °F 30.20 in ESE 5.0 mph 14.0 mph 54% 0.00 in
22:45 56.6 °F 40.1 °F 30.20 in East 6.0 mph 14.0 mph 54% 0.00 in
22:50 56.6 °F 40.1 °F 30.20 in NE 3.0 mph 9.0 mph 54% 0.00 in
22:55 56.5 °F 40.0 °F 30.20 in ENE 7.0 mph 9.0 mph 54% 0.00 in
23:00 56.6 °F 40.1 °F 30.21 in East 5.0 mph 14.0 mph 54% 0.00 in
23:05 56.7 °F 39.7 °F 30.21 in East 5.0 mph 14.0 mph 53% 0.00 in
23:10 56.7 °F 39.7 °F 30.22 in ENE 4.0 mph 10.0 mph 53% 0.00 in
23:15 56.9 °F 39.4 °F 30.21 in ENE 4.0 mph 10.0 mph 52% 0.00 in
23:20 56.9 °F 39.4 °F 30.21 in ENE 5.0 mph 13.0 mph 52% 0.00 in
23:25 57.0 °F 39.0 °F 30.21 in ENE 5.0 mph 13.0 mph 51% 0.00 in
23:30 57.0 °F 39.0 °F 30.21 in East 7.0 mph 10.0 mph 51% 0.00 in
23:35 57.1 °F 39.1 °F 30.21 in East 6.0 mph 10.0 mph 51% 0.00 in
23:40 57.2 °F 39.2 °F 30.21 in East 5.0 mph 10.0 mph 51% 0.00 in
23:45 57.1 °F 39.6 °F 30.21 in East 9.0 mph 10.0 mph 52% 0.00 in
23:50 57.1 °F 39.6 °F 30.21 in ENE 4.0 mph 10.0 mph 52% 0.00 in
23:55 57.0 °F 40.0 °F 30.20 in NE 10.0 mph 10.0 mph 53% 0.00 in
Buffalo, New York, USA
Compliments of Weather Underground - 2.5 mb